EWG6U EDDL-LHBP

Flight info

Callsign EWG6U
Flight time N/A
Altitude 37000
Route DODEN1T/23L DODEN Y853 BOMBI DCT ESATI DCT OSBIT DCT BOREP DCT ENITA DCT IPDUL DCT PEPIK DCT NIT M748 ARFOX
Aircraft A319/M-SDE3FGHIRWY/LB1

Departure

Time 2026-05-04 18:01
Airport Düsseldorf Airport (EDDL)

Arrival

Time N/A
Airport Budapest Liszt Ferenc International Airport (LHBP)
Time Latitude Longitude Altitude Speed Heading
2026-05-04 16:26 51.28107 6.76730 153 ft 0 kts 272°
2026-05-04 17:50 51.28107 6.76747 153 ft 2 kts 272°
2026-05-04 17:50 51.28106 6.76771 153 ft 2 kts 272°
2026-05-04 17:50 51.28102 6.76793 153 ft 2 kts 316°
2026-05-04 17:50 51.28088 6.76804 154 ft 2 kts 356°
2026-05-04 17:51 51.28080 6.76804 154 ft 1 kts 20°
2026-05-04 17:51 51.28075 6.76800 153 ft 0 kts 18°
2026-05-04 17:53 51.28077 6.76801 153 ft 0 kts 18°
2026-05-04 17:54 51.28089 6.76807 153 ft 2 kts 18°
2026-05-04 17:54 51.28120 6.76822 153 ft 6 kts 12°
2026-05-04 17:54 51.28183 6.76838 153 ft 11 kts
2026-05-04 17:54 51.28274 6.76859 153 ft 14 kts
2026-05-04 17:55 51.28373 6.76862 153 ft 13 kts 335°
2026-05-04 17:55 51.28450 6.76781 153 ft 12 kts 335°
2026-05-04 17:55 51.28520 6.76840 153 ft 13 kts 52°
2026-05-04 17:55 51.28586 6.76979 153 ft 18 kts 53°
2026-05-04 17:56 51.28669 6.77154 153 ft 21 kts 51°
2026-05-04 17:56 51.28762 6.77349 153 ft 23 kts 54°
2026-05-04 17:56 51.28863 6.77561 154 ft 24 kts 53°
2026-05-04 17:56 51.28963 6.77773 153 ft 23 kts 53°
2026-05-04 17:57 51.29062 6.77980 153 ft 23 kts 53°
2026-05-04 17:57 51.29147 6.78157 154 ft 19 kts 53°
2026-05-04 17:57 51.29229 6.78333 153 ft 19 kts 52°
2026-05-04 17:57 51.29301 6.78482 153 ft 11 kts 53°
2026-05-04 17:58 51.29343 6.78555 153 ft 7 kts 34°
2026-05-04 17:58 51.29396 6.78571 153 ft 8 kts 359°
2026-05-04 17:58 51.29414 6.78571 153 ft 0 kts 358°
2026-05-04 17:58 51.29415 6.78571 153 ft 0 kts 358°
2026-05-04 17:59 51.29438 6.78570 153 ft 5 kts 358°
2026-05-04 17:59 51.29494 6.78558 153 ft 9 kts 334°
2026-05-04 17:59 51.29491 6.78412 153 ft 0 kts 233°
2026-05-04 18:00 51.29460 6.78346 153 ft 33 kts 233°
2026-05-04 18:00 51.29146 6.77688 154 ft 113 kts 233°
2026-05-04 18:00 51.28539 6.76414 293 ft 162 kts 231°
2026-05-04 18:01 51.27862 6.74984 995 ft 165 kts 231°
2026-05-04 18:01 51.27196 6.73545 1826 ft 164 kts 231°
2026-05-04 18:01 51.26508 6.72039 2473 ft 177 kts 231°
2026-05-04 18:02 51.24896 6.68592 3738 ft 213 kts 231°
2026-05-04 18:02 51.23980 6.66637 4413 ft 231 kts 231°
2026-05-04 18:02 51.22888 6.64663 5040 ft 247 kts 215°
2026-05-04 18:02 51.21269 6.63621 5724 ft 261 kts 186°
2026-05-04 18:03 51.19462 6.63759 6700 ft 264 kts 175°
2026-05-04 18:03 51.17662 6.64077 7653 ft 267 kts 175°
2026-05-04 18:03 51.15850 6.64628 8544 ft 274 kts 161°
2026-05-04 18:03 51.14258 6.66302 9308 ft 285 kts 136°
2026-05-04 18:04 51.13225 6.69055 9788 ft 296 kts 109°
2026-05-04 18:04 51.13038 6.72351 10206 ft 309 kts 89°
2026-05-04 18:04 51.13376 6.79544 11191 ft 344 kts 87°
2026-05-04 18:05 51.13555 6.83392 11584 ft 362 kts 87°
2026-05-04 18:05 51.13728 6.87452 12170 ft 373 kts 87°
2026-05-04 18:05 51.13894 6.91583 12914 ft 378 kts 87°
2026-05-04 18:05 51.14056 6.95781 13617 ft 384 kts 88°
2026-05-04 18:06 51.14374 7.04466 14918 ft 398 kts 88°
2026-05-04 18:06 51.14529 7.08857 15525 ft 405 kts 88°
2026-05-04 18:06 51.14684 7.13341 16146 ft 411 kts 88°
2026-05-04 18:07 51.14842 7.17945 16751 ft 417 kts 88°
2026-05-04 18:07 51.14981 7.22559 17320 ft 423 kts 91°
2026-05-04 18:07 51.14532 7.27198 17854 ft 423 kts 114°
2026-05-04 18:07 51.13191 7.31270 18464 ft 418 kts 128°
2026-05-04 18:08 51.11559 7.35065 19025 ft 422 kts 130°
2026-05-04 18:08 51.09887 7.38953 19548 ft 429 kts 129°
2026-05-04 18:08 51.08264 7.42949 20076 ft 435 kts 127°
2026-05-04 18:08 51.06681 7.47044 20597 ft 440 kts 126°
2026-05-04 18:09 51.03520 7.55524 21606 ft 450 kts 125°
2026-05-04 18:09 51.00333 7.64141 22616 ft 457 kts 125°
2026-05-04 18:10 50.98710 7.68503 23200 ft 457 kts 127°
2026-05-04 18:10 50.96856 7.72476 23669 ft 452 kts 139°
2026-05-04 18:10 50.94545 7.75867 23960 ft 446 kts 150°
2026-05-04 18:10 50.92025 7.78550 24004 ft 443 kts 156°
2026-05-04 18:11 50.89357 7.81092 24350 ft 447 kts 156°
2026-05-04 18:11 50.86699 7.83600 24865 ft 449 kts 156°
2026-05-04 18:11 50.84004 7.86176 25312 ft 452 kts 156°
2026-05-04 18:11 50.81333 7.88760 25714 ft 456 kts 155°
2026-05-04 18:12 50.78651 7.91371 26108 ft 460 kts 155°
2026-05-04 18:12 50.75932 7.94029 26498 ft 464 kts 155°
2026-05-04 18:12 50.73163 7.96735 26883 ft 467 kts 155°
2026-05-04 18:12 50.70413 7.99420 27256 ft 471 kts 155°
2026-05-04 18:13 50.67623 8.02139 27620 ft 474 kts 155°
2026-05-04 18:13 50.64796 8.04890 27975 ft 478 kts 155°
2026-05-04 18:13 50.59230 8.10741 28659 ft 490 kts 150°
2026-05-04 18:14 50.56561 8.14081 28990 ft 496 kts 147°
2026-05-04 18:14 50.53914 8.17564 29320 ft 499 kts 146°
2026-05-04 18:14 50.51270 8.21056 29634 ft 502 kts 146°
2026-05-04 18:15 50.45915 8.28099 30295 ft 507 kts 146°
2026-05-04 18:15 50.40503 8.35171 31132 ft 506 kts 147°
2026-05-04 18:15 50.37796 8.38692 31519 ft 506 kts 147°
2026-05-04 18:16 50.35079 8.42219 31894 ft 507 kts 147°
2026-05-04 18:16 50.32383 8.45713 32262 ft 507 kts 147°
2026-05-04 18:16 50.29665 8.49230 32629 ft 508 kts 147°
2026-05-04 18:17 50.24226 8.56251 33343 ft 509 kts 147°
2026-05-04 18:17 50.21519 8.59738 33687 ft 509 kts 147°